Muskogee, OK

8:47 AM CDT on June 26, 2017 (GMT -0500)
Davis

Weather History for KMKO - August, 2013

Change the Weather History Date:

Wednesday, August 7, 2013

  Actual Average Record
Temperature  
Mean Temperature 85 °F -  
Max Temperature 96 °F 90 °F 106 °F (2012)
Min Temperature 75 °F 67 °F 60 °F (1997)
Cooling Degree Days 20    
Growing Degree Days 35 (Base 50)    
Moisture  
Dew Point 75 °F    
Average Humidity 71    
Maximum Humidity 94    
Minimum Humidity 51    
Precipitation  
Precipitation 0.00 in - - ()
Sea Level Pressure  
Sea Level Pressure 29.83 in    
Wind  
Wind Speed 6 mph (ESE)    
Max Wind Speed 9 mph    
Max Gust Speed -    
Visibility 10 miles    
Events      
Averages and records for this station are not official NWS values.
T = Trace of Precipitation, MM = Missing Value Source: NWS Daily Summary

Daily Weather History Graph

Daily Weather History Graph

Search for Another Location

Airport or City:

Trip Planner

Search our weather history database for the weather conditions in past years. The results will help you decide how hot, cold, wet, or windy it might be!

Date:

Astronomy

Aug. 07, 2013 Rise Set
Actual Time 6:34 AM CDT 8:19 PM CDT
Civil Twilight 6:06 AM CDT 8:46 PM CDT
Nautical Twilight 5:33 AM CDT 9:20 PM CDT
Astronomical Twilight 4:57 AM CDT 9:55 PM CDT
Moon 7:20 AM CDT (8/7) 8:32 PM CDT (8/7)
Length of Visible Light 14h 40m
Length of Day
13h 45m
New Moon, 1% of the Moon is Illuminated
Aug 7
New Moon
Aug 14
First Quarter
Aug 20
Full
Aug 28
Last Quarter
Sep 5
New

Hourly Weather History & Observations

Time (CDT) Temp. Heat Index Dew Point Humidity Pressure Visibility Wind Dir Wind Speed Gust Speed Precip Events Conditions
12:53 AM 79.0 °F - 73.9 °F 84% 29.81 in 10.0 mi SE 6.9 mph - N/A   Clear
1:53 AM 79.0 °F - 73.9 °F 84% 29.81 in 10.0 mi SE 8.1 mph - N/A   Clear
2:53 AM 78.1 °F - 73.0 °F 84% 29.79 in 10.0 mi SSE 6.9 mph - N/A   Clear
3:53 AM 78.1 °F - 73.9 °F 87% 29.80 in 10.0 mi South 3.5 mph - N/A   Scattered Clouds
4:53 AM 77.0 °F - 73.0 °F 88% 29.82 in 10.0 mi North 3.5 mph - N/A   Clear
5:53 AM 77.0 °F - 73.0 °F 88% 29.84 in 10.0 mi Calm Calm - N/A   Clear
6:53 AM 75.0 °F - 73.0 °F 94% 29.83 in 10.0 mi South 6.9 mph - N/A   Clear
7:53 AM 78.1 °F - 75.0 °F 90% 29.85 in 10.0 mi SE 5.8 mph - N/A   Clear
8:53 AM 84.9 °F 93.3 °F 75.0 °F 72% 29.88 in 10.0 mi ESE 5.8 mph - N/A   Clear
9:53 AM 87.1 °F 93.6 °F 72.0 °F 61% 29.87 in 10.0 mi SSE 9.2 mph - N/A   Clear
10:53 AM 89.1 °F 98.0 °F 73.9 °F 61% 29.87 in 10.0 mi South 8.1 mph - N/A   Clear
11:53 AM 90.0 °F 96.9 °F 72.0 °F 55% 29.87 in 10.0 mi Variable 5.8 mph - N/A   Partly Cloudy
12:53 PM 91.9 °F 100.7 °F 73.0 °F 54% 29.86 in 10.0 mi Variable 3.5 mph - N/A   Partly Cloudy
1:53 PM 93.9 °F 103.4 °F 73.0 °F 51% 29.85 in 10.0 mi ESE 9.2 mph - N/A   Clear
2:53 PM 93.9 °F 103.4 °F 73.0 °F 51% 29.83 in 10.0 mi SE 9.2 mph - N/A   Clear
3:53 PM 93.0 °F 103.2 °F 73.9 °F 54% 29.82 in 10.0 mi SSE 6.9 mph - N/A   Clear
4:53 PM 95.0 °F 106.7 °F 75.0 °F 52% 29.81 in 10.0 mi SE 9.2 mph - N/A   Clear
5:53 PM 95.0 °F 106.7 °F 75.0 °F 52% 29.81 in 10.0 mi East 6.9 mph - N/A   Scattered Clouds
6:53 PM 93.9 °F 104.0 °F 73.9 °F 52% 29.80 in 10.0 mi East 5.8 mph - N/A   Mostly Cloudy
7:53 PM 90.0 °F 104.5 °F 78.1 °F 68% 29.80 in 10.0 mi NE 8.1 mph - N/A   Partly Cloudy
8:53 PM 87.1 °F 98.8 °F 77.0 °F 72% 29.81 in 10.0 mi ENE 5.8 mph - N/A   Clear
9:53 PM 86.0 °F 98.3 °F 78.1 °F 77% 29.82 in 10.0 mi ENE 5.8 mph - N/A   Clear
10:53 PM 84.0 °F 94.8 °F 78.1 °F 82% 29.84 in 10.0 mi North 4.6 mph - N/A   Clear
11:53 PM 82.9 °F 93.8 °F 79.0 °F 88% 29.83 in 10.0 mi ENE 5.8 mph - N/A   Clear